Weather Roundup
Issued by NWS Springfield, MO

Home | Current Version | Previous Version | Text Only | Print | Product List | Glossary On
Versions: 1 2 3 4 5 6 7 8 9 10 11 12 13 14 15 16 17 18 19 20 21 22 23 24 25 26 27 28 29 30 31 32 33 34 35 36 37 38 39 40 41 42 43 44 45 46 47 48 49 50
000
NZUS99 KSGF 020307
HRRSGF

HOURLY WEATHER
NATIONAL WEATHER SERVICE SPRINGFIELD MO
1000 PM CDT WED APR 01 2015

......SGF CWA......

CITY           SKY/WX    TMP DP  RH WIND       PRES   REMARKS
SPRINGFIELD    PTCLDY    63  60  90 S16       29.82S
JOPLIN         CLEAR     66  54  65 S12       29.78R
WEST PLAINS    HVY RAIN  63  60  90 S15G22    29.92R FOG
ROLLA          MOCLDY    60  54  80 SE10      29.83S
OSAGE BEACH    CLOUDY    59  54  82 SE9       29.81F
BRANSON        PTCLDY    59  57  94 SE10      29.87S

......SURROUNDING SGF CWA......

CITY           SKY/WX    TMP DP  RH WIND       PRES   REMARKS
CHANUTE        CLEAR     68  57  68 S15       29.73R
PARSONS        CLEAR     69  59  70 S13G21    29.75R
COFFEYVILLE    CLEAR     68  58  70 S13       29.75R
EMPORIA        CLEAR     69  55  60 S15       29.66R
GROVE OK       CLEAR     70  59  68 S10       29.80S
ROGERS AR      CLEAR     65  57  75 S15       29.83F
SILOAM SPRINGS CLEAR     66  55  68 S12       29.83F
HARRISON AR    CLOUDY    61  58  90 SE12        N/A
NEAR YELLVILLE CLOUDY    61  55  82 E5        29.90R

......KANSAS AND MISSOURI......

CITY           SKY/WX    TMP DP  RH WIND       PRES   REMARKS
KANSAS CTY INT CLEAR     62  56  80 SE20      29.68F
DOWNTOWN KC    PTCLDY    63  57  81 SE8G18    29.69F
COLUMBIA       CLOUDY    57  56  96 SE7       29.81F
SEDALIA        PTCLDY    58  55  90 SE13      29.77F
ST JOSEPH      CLEAR     64  55  72 S16       29.65F
ST LOUIS       CLOUDY    69  40  34 SE12      29.85F
SPIRIT OF STL  CLOUDY    67  44  43 S3        29.85F
KIRKSVILLE     PTCLDY    57  52  83 SE12      29.77F
WICHITA        MOCLDY    74  59  59 S25G35    29.63S
TOPEKA         CLEAR     64  58  80 SE14      29.65F
OLATHE         CLOUDY    61  59  93 SE15G24   29.69F

......TENNESSEE......

CITY           SKY/WX    TMP DP  RH WIND       PRES   REMARKS
MEMPHIS        MOCLDY    71  60  68 S9        29.96S
NASHVILLE      MOCLDY    61  36  39 SE5       30.04F

......ARKANSAS.......

CITY           SKY/WX    TMP DP  RH WIND       PRES   REMARKS
FAYETTEVILLE   CLEAR     63  56  78 S9        29.84S
FT SMITH       MOCLDY    67  57  70 SE7       29.84S
LITTLE ROCK    TSTM      65  60  84 W3        29.94S FOG

......OKLAHOMA.......

CITY           SKY/WX    TMP DP  RH WIND       PRES   REMARKS
TULSA          PTCLDY    72  63  73 S14       29.77R
PONCA CITY     MOCLDY    73  60  63 S13G26    29.71R
MCALESTER      MOCLDY    71  63  75 S8        29.81R
OKLAHOMA CITY  PTCLDY    70  60  70 S15       29.73R

......IOWA............

CITY           SKY/WX    TMP DP  RH WIND       PRES   REMARKS
DES MOINES     MOCLDY    67  52  58 S17G29    29.65F
QUAD CITIES    MOCLDY    64  37  36 S16G26    29.75F

......ILLINOIS........

CITY           SKY/WX    TMP DP  RH WIND       PRES   REMARKS
QUINCY         CLOUDY    65  48  54 S12G22    29.80F
CHICAGO        PTCLDY    62  37  39 S20       29.86F



USA.gov is the U.S. government's official web portal to all federal, state and local government web resources and services.